Saint Bonnet de Bellac- Haute Vienne - France
Donnes mto: lundi, 15/10/2012
Date Horaire Temp. E. Hum. E. P.atmo. Pluie Vent Direction Direction Ensoleilleme Solaire P. de rose Temp au vent Rafales
15/10/2012 00:00 6,7 C 93 % 1005,9 hPa 0,0 mm 0,0 km/h (0 Bft) E-NE 67 0 min 0 W/m 5,6 C 6,7 C 0,0 km/h (0 Bft)
15/10/2012 00:10 6,8 C 93 % 1005,8 hPa 0,0 mm 0,0 km/h (0 Bft) E-NE 67 0 min 0 W/m 5,7 C 6,8 C 0,0 km/h (0 Bft)
15/10/2012 00:20 6,9 C 93 % 1005,9 hPa 0,0 mm 0,0 km/h (0 Bft) E-NE 67 0 min 0 W/m 5,8 C 6,9 C 3,2 km/h (1 Bft)
15/10/2012 00:30 6,9 C 93 % 1006,0 hPa 0,0 mm 0,0 km/h (0 Bft) S-SE 157 0 min 0 W/m 5,8 C 6,9 C 0,0 km/h (0 Bft)
15/10/2012 00:40 6,8 C 93 % 1006,1 hPa 0,0 mm 0,0 km/h (0 Bft) S-SE 157 0 min 0 W/m 5,7 C 6,8 C 0,0 km/h (0 Bft)
15/10/2012 00:50 6,6 C 93 % 1006,1 hPa 0,0 mm 0,0 km/h (0 Bft) S-SE 157 0 min 0 W/m 5,6 C 6,6 C 0,0 km/h (0 Bft)
15/10/2012 01:00 6,5 C 93 % 1006,2 hPa 0,0 mm 0,0 km/h (0 Bft) S-SE 157 0 min 0 W/m 5,5 C 6,5 C 0,0 km/h (0 Bft)
15/10/2012 01:10 6,3 C 93 % 1006,3 hPa 0,0 mm 0,0 km/h (0 Bft) S-SE 157 0 min 0 W/m 5,3 C 6,3 C 0,0 km/h (0 Bft)
15/10/2012 01:20 5,9 C 93 % 1006,3 hPa 0,0 mm 0,0 km/h (0 Bft) S-SE 157 0 min 0 W/m 4,9 C 5,9 C 0,0 km/h (0 Bft)
15/10/2012 01:30 5,7 C 93 % 1006,3 hPa 0,0 mm 0,0 km/h (0 Bft) S-SE 157 0 min 0 W/m 4,7 C 5,7 C 0,0 km/h (0 Bft)
15/10/2012 01:40 5,5 C 93 % 1006,3 hPa 0,0 mm 0,0 km/h (0 Bft) S-SE 157 0 min 0 W/m 4,5 C 5,5 C 0,0 km/h (0 Bft)
15/10/2012 01:50 5,3 C 93 % 1006,4 hPa 0,0 mm 0,0 km/h (0 Bft) S-SE 157 0 min 0 W/m 4,3 C 5,3 C 0,0 km/h (0 Bft)
15/10/2012 02:00 5,1 C 93 % 1006,5 hPa 0,0 mm 0,0 km/h (0 Bft) S-SE 157 0 min 0 W/m 4,1 C 5,1 C 0,0 km/h (0 Bft)
15/10/2012 02:10 4,8 C 93 % 1006,5 hPa 0,0 mm 0,0 km/h (0 Bft) S-SE 157 0 min 0 W/m 3,8 C 4,8 C 0,0 km/h (0 Bft)
15/10/2012 02:20 4,8 C 93 % 1006,6 hPa 0,0 mm 0,0 km/h (0 Bft) S-SE 157 0 min 0 W/m 3,8 C 4,8 C 0,0 km/h (0 Bft)
15/10/2012 02:30 4,6 C 93 % 1006,6 hPa 0,0 mm 0,0 km/h (0 Bft) S-SE 157 0 min 0 W/m 3,6 C 4,6 C 0,0 km/h (0 Bft)
15/10/2012 02:40 4,5 C 93 % 1006,7 hPa 0,0 mm 0,0 km/h (0 Bft) S-SE 157 0 min 0 W/m 3,5 C 4,5 C 0,0 km/h (0 Bft)
15/10/2012 02:50 4,4 C 93 % 1006,9 hPa 0,0 mm 0,0 km/h (0 Bft) S-SE 157 0 min 0 W/m 3,4 C 4,4 C 0,0 km/h (0 Bft)
15/10/2012 03:02 4,3 C 93 % 1007,0 hPa 0,0 mm 0,0 km/h (0 Bft) S-SE 157 0 min 0 W/m 3,3 C 4,3 C 0,0 km/h (0 Bft)
15/10/2012 03:10 4,2 C 93 % 1007,1 hPa 0,0 mm 0,0 km/h (0 Bft) S-SE 157 0 min 0 W/m 3,2 C 4,2 C 0,0 km/h (0 Bft)
15/10/2012 03:20 4,2 C 93 % 1007,2 hPa 0,0 mm 0,0 km/h (0 Bft) S-SE 157 0 min 0 W/m 3,2 C 4,2 C 0,0 km/h (0 Bft)
15/10/2012 03:30 4,1 C 93 % 1007,4 hPa 0,0 mm 0,0 km/h (0 Bft) S-SE 157 0 min 0 W/m 3,1 C 4,1 C 0,0 km/h (0 Bft)
15/10/2012 03:40 4,0 C 93 % 1007,5 hPa 0,0 mm 0,0 km/h (0 Bft) S-SE 157 0 min 0 W/m 3,0 C 4,0 C 0,0 km/h (0 Bft)
15/10/2012 03:50 4,0 C 93 % 1007,6 hPa 0,0 mm 0,0 km/h (0 Bft) S-SE 157 0 min 0 W/m 3,0 C 4,0 C 0,0 km/h (0 Bft)
15/10/2012 04:00 3,9 C 94 % 1007,7 hPa 0,0 mm 0,0 km/h (0 Bft) S-SE 157 0 min 0 W/m 3,0 C 3,9 C 0,0 km/h (0 Bft)
15/10/2012 04:10 3,8 C 94 % 1007,7 hPa 0,0 mm 0,0 km/h (0 Bft) S-SE 157 0 min 0 W/m 2,9 C 3,8 C 0,0 km/h (0 Bft)
15/10/2012 04:20 3,7 C 94 % 1007,8 hPa 0,0 mm 0,0 km/h (0 Bft) S-SE 157 0 min 0 W/m 2,8 C 3,7 C 0,0 km/h (0 Bft)
15/10/2012 04:30 3,5 C 94 % 1007,8 hPa 0,0 mm 0,0 km/h (0 Bft) S-SE 157 0 min 0 W/m 2,6 C 3,5 C 0,0 km/h (0 Bft)
15/10/2012 04:40 3,3 C 94 % 1007,9 hPa 0,0 mm 0,0 km/h (0 Bft) S-SE 157 0 min 0 W/m 2,4 C 3,3 C 0,0 km/h (0 Bft)
15/10/2012 04:50 3,1 C 93 % 1008,0 hPa 0,0 mm 0,0 km/h (0 Bft) S-SE 157 0 min 0 W/m 2,1 C 3,1 C 0,0 km/h (0 Bft)
15/10/2012 05:00 2,9 C 93 % 1008,0 hPa 0,0 mm 0,0 km/h (0 Bft) S-SE 157 0 min 0 W/m 1,9 C 2,9 C 0,0 km/h (0 Bft)
15/10/2012 05:10 2,9 C 93 % 1008,1 hPa 0,0 mm 0,0 km/h (0 Bft) S-SE 157 0 min 0 W/m 1,9 C 2,9 C 0,0 km/h (0 Bft)
15/10/2012 05:20 2,8 C 93 % 1008,1 hPa 0,0 mm 0,0 km/h (0 Bft) S-SE 157 0 min 0 W/m 1,8 C 2,8 C 0,0 km/h (0 Bft)
15/10/2012 05:30 2,8 C 93 % 1008,2 hPa 0,0 mm 0,0 km/h (0 Bft) S-SE 157 0 min 0 W/m 1,8 C 2,8 C 0,0 km/h (0 Bft)
15/10/2012 05:40 2,8 C 93 % 1008,2 hPa 0,0 mm 0,0 km/h (0 Bft) S-SE 157 0 min 0 W/m 1,8 C 2,8 C 0,0 km/h (0 Bft)
15/10/2012 05:50 2,9 C 94 % 1008,3 hPa 0,0 mm 0,0 km/h (0 Bft) S-SE 157 0 min 0 W/m 2,0 C 2,9 C 0,0 km/h (0 Bft)
15/10/2012 06:00 3,0 C 93 % 1008,5 hPa 0,0 mm 0,0 km/h (0 Bft) S-SE 157 0 min 0 W/m 2,0 C 3,0 C 0,0 km/h (0 Bft)
15/10/2012 06:10 3,1 C 93 % 1008,5 hPa 0,0 mm 0,0 km/h (0 Bft) S-SE 157 0 min 0 W/m 2,1 C 3,1 C 0,0 km/h (0 Bft)
15/10/2012 06:20 2,9 C 93 % 1008,6 hPa 0,0 mm 0,0 km/h (0 Bft) S-SE 157 0 min 0 W/m 1,9 C 2,9 C 0,0 km/h (0 Bft)
15/10/2012 06:30 2,9 C 93 % 1008,8 hPa 0,0 mm 0,0 km/h (0 Bft) S-SE 157 0 min 0 W/m 1,9 C 2,9 C 0,0 km/h (0 Bft)
15/10/2012 06:40 2,8 C 93 % 1008,9 hPa 0,0 mm 0,0 km/h (0 Bft) S-SE 157 0 min 0 W/m 1,8 C 2,8 C 0,0 km/h (0 Bft)
15/10/2012 06:50 2,6 C 93 % 1009,0 hPa 0,0 mm 0,0 km/h (0 Bft) S-SE 157 0 min 0 W/m 1,6 C 2,6 C 0,0 km/h (0 Bft)
15/10/2012 07:00 2,5 C 93 % 1009,0 hPa 0,0 mm 0,0 km/h (0 Bft) S-SE 157 0 min 0 W/m 1,5 C 2,5 C 0,0 km/h (0 Bft)
15/10/2012 07:10 2,3 C 93 % 1009,2 hPa 0,0 mm 0,0 km/h (0 Bft) S-SE 157 0 min 0 W/m 1,3 C 2,3 C 0,0 km/h (0 Bft)
15/10/2012 07:20 2,1 C 94 % 1009,3 hPa 0,0 mm 0,0 km/h (0 Bft) SE 135 0 min 0 W/m 1,2 C 2,1 C 0,0 km/h (0 Bft)
15/10/2012 07:30 2,2 C 94 % 1009,5 hPa 0,0 mm 0,0 km/h (0 Bft) SE 135 0 min 0 W/m 1,3 C 2,2 C 2,9 km/h (1 Bft)
15/10/2012 07:40 2,2 C 94 % 1009,5 hPa 0,0 mm 0,0 km/h (0 Bft) SE 135 0 min 0 W/m 1,3 C 2,2 C 0,0 km/h (0 Bft)
15/10/2012 07:50 2,1 C 94 % 1009,6 hPa 0,0 mm 1,1 km/h (1 Bft) E-SE 112 0 min 0 W/m 1,2 C 2,1 C 4,0 km/h (1 Bft)
15/10/2012 08:00 2,3 C 94 % 1009,6 hPa 0,0 mm 2,9 km/h (1 Bft) SE 135 0 min 0 W/m 1,4 C 2,3 C 3,6 km/h (1 Bft)
15/10/2012 08:10 2,5 C 94 % 1009,7 hPa 0,0 mm 0,0 km/h (0 Bft) SE 135 0 min 0 W/m 1,6 C 2,5 C 0,0 km/h (0 Bft)
15/10/2012 08:20 2,6 C 94 % 1009,8 hPa 0,1 mm 0,0 km/h (0 Bft) SE 135 0 min 0 W/m 1,7 C 2,6 C 0,0 km/h (0 Bft)
15/10/2012 08:30 2,6 C 94 % 1009,9 hPa 0,0 mm 0,0 km/h (0 Bft) SE 135 0 min 0 W/m 1,7 C 2,6 C 0,0 km/h (0 Bft)
15/10/2012 08:40 2,8 C 94 % 1009,9 hPa 0,0 mm 0,4 km/h (0 Bft) SE 135 0 min 0 W/m 1,9 C 2,8 C 3,2 km/h (1 Bft)
15/10/2012 08:50 2,8 C 94 % 1009,9 hPa 0,0 mm 2,2 km/h (1 Bft) SE 135 0 min 0 W/m 1,9 C 2,8 C 3,6 km/h (1 Bft)
15/10/2012 09:00 2,9 C 94 % 1010,0 hPa 0,0 mm 0,7 km/h (0 Bft) E 90 0 min 0 W/m 2,0 C 2,9 C 3,6 km/h (1 Bft)
15/10/2012 09:10 3,1 C 94 % 1010,1 hPa 0,0 mm 0,0 km/h (0 Bft) E-SE 112 0 min 0 W/m 2,2 C 3,1 C 0,0 km/h (0 Bft)
15/10/2012 09:20 3,2 C 94 % 1010,3 hPa 0,0 mm 0,0 km/h (0 Bft) SE 135 0 min 0 W/m 2,3 C 3,2 C 0,0 km/h (0 Bft)
15/10/2012 09:30 3,4 C 94 % 1010,4 hPa 0,0 mm 0,0 km/h (0 Bft) S 180 0 min 0 W/m 2,5 C 3,4 C 3,2 km/h (1 Bft)
15/10/2012 09:40 3,7 C 94 % 1010,6 hPa 0,0 mm 0,0 km/h (0 Bft) S 180 0 min 0 W/m 2,8 C 3,7 C 0,0 km/h (0 Bft)
15/10/2012 09:50 4,0 C 94 % 1010,7 hPa 0,0 mm 0,0 km/h (0 Bft) S 180 0 min 0 W/m 3,1 C 4,0 C 0,0 km/h (0 Bft)
15/10/2012 10:00 4,6 C 95 % 1010,8 hPa 0,0 mm 0,0 km/h (0 Bft) S 180 0 min 0 W/m 3,9 C 4,6 C 0,0 km/h (0 Bft)
15/10/2012 10:10 5,4 C 95 % 1010,9 hPa 0,0 mm 0,0 km/h (0 Bft) S 180 0 min 0 W/m 4,7 C 5,4 C 0,0 km/h (0 Bft)
15/10/2012 10:20 5,8 C 95 % 1011,1 hPa 0,0 mm 0,0 km/h (0 Bft) S-SE 157 0 min 0 W/m 5,1 C 5,8 C 0,0 km/h (0 Bft)
15/10/2012 10:30 6,4 C 95 % 1011,0 hPa 0,0 mm 0,0 km/h (0 Bft) S-SE 157 0 min 0 W/m 5,7 C 6,4 C 0,0 km/h (0 Bft)
15/10/2012 10:40 7,1 C 95 % 1011,1 hPa 0,0 mm 0,0 km/h (0 Bft) S-SE 157 0 min 0 W/m 6,4 C 7,1 C 0,0 km/h (0 Bft)
15/10/2012 10:50 7,8 C 95 % 1011,3 hPa 0,0 mm 0,0 km/h (0 Bft) S-SE 157 0 min 0 W/m 7,0 C 7,8 C 0,0 km/h (0 Bft)
15/10/2012 11:00 7,9 C 94 % 1011,4 hPa 0,0 mm 0,0 km/h (0 Bft) S-SE 157 0 min 0 W/m 7,0 C 7,9 C 0,0 km/h (0 Bft)
15/10/2012 11:10 8,3 C 94 % 1011,5 hPa 0,0 mm 0,0 km/h (0 Bft) S-SE 157 0 min 0 W/m 7,4 C 8,3 C 0,0 km/h (0 Bft)
15/10/2012 11:20 8,6 C 94 % 1011,5 hPa 0,0 mm 0,0 km/h (0 Bft) S-SE 157 0 min 0 W/m 7,7 C 8,6 C 0,0 km/h (0 Bft)
15/10/2012 11:30 9,1 C 94 % 1011,6 hPa 0,0 mm 0,4 km/h (0 Bft) SO 225 0 min 0 W/m 8,2 C 9,1 C 0,4 km/h (0 Bft)
15/10/2012 11:40 9,8 C 92 % 1011,6 hPa 0,0 mm 1,1 km/h (1 Bft) O 270 0 min 0 W/m 8,6 C 9,8 C 3,2 km/h (1 Bft)
15/10/2012 11:50 10,3 C 90 % 1011,8 hPa 0,0 mm 1,8 km/h (1 Bft) O-SO 247 0 min 0 W/m 8,7 C 10,3 C 3,6 km/h (1 Bft)
15/10/2012 12:00 11,1 C 89 % 1011,9 hPa 0,0 mm 1,1 km/h (1 Bft) SO 225 0 min 0 W/m 9,4 C 11,1 C 4,3 km/h (1 Bft)
15/10/2012 12:10 11,6 C 87 % 1012,0 hPa 0,0 mm 5,8 km/h (2 Bft) S-SO 202 0 min 0 W/m 9,5 C 11,6 C 8,3 km/h (2 Bft)
15/10/2012 12:20 12,1 C 85 % 1012,0 hPa 0,0 mm 4,3 km/h (1 Bft) SO 225 0 min 0 W/m 9,7 C 12,1 C 8,3 km/h (2 Bft)
15/10/2012 12:30 12,4 C 85 % 1012,0 hPa 0,0 mm 6,1 km/h (2 Bft) S 180 0 min 0 W/m 9,9 C 12,4 C 9,4 km/h (2 Bft)
15/10/2012 12:40 12,8 C 83 % 1012,0 hPa 0,0 mm 1,8 km/h (1 Bft) SO 225 0 min 0 W/m 10,0 C 12,8 C 4,3 km/h (1 Bft)
15/10/2012 12:50 12,6 C 81 % 1012,0 hPa 0,0 mm 4,7 km/h (1 Bft) SO 225 0 min 0 W/m 9,4 C 12,6 C 6,8 km/h (2 Bft)
15/10/2012 13:00 12,6 C 81 % 1012,1 hPa 0,0 mm 5,0 km/h (1 Bft) S-SO 202 0 min 0 W/m 9,4 C 12,6 C 5,0 km/h (1 Bft)
15/10/2012 13:10 12,8 C 79 % 1012,2 hPa 0,0 mm 6,8 km/h (2 Bft) S 180 0 min 0 W/m 9,2 C 12,8 C 10,4 km/h (2 Bft)
15/10/2012 13:20 12,9 C 78 % 1012,3 hPa 0,0 mm 1,8 km/h (1 Bft) O-SO 247 0 min 0 W/m 9,2 C 12,9 C 4,3 km/h (1 Bft)
15/10/2012 13:30 12,9 C 77 % 1012,3 hPa 0,0 mm 3,6 km/h (1 Bft) O-SO 247 0 min 0 W/m 9,0 C 12,9 C 6,1 km/h (2 Bft)
15/10/2012 13:40 12,8 C 75 % 1012,3 hPa 0,0 mm 4,3 km/h (1 Bft) SO 225 0 min 0 W/m 8,5 C 12,8 C 4,3 km/h (1 Bft)
15/10/2012 13:50 13,1 C 77 % 1012,3 hPa 0,0 mm 1,1 km/h (1 Bft) O-SO 247 0 min 0 W/m 9,2 C 13,1 C 3,6 km/h (1 Bft)
15/10/2012 14:00 13,4 C 75 % 1012,2 hPa 0,0 mm 4,0 km/h (1 Bft) S-SO 202 0 min 0 W/m 9,1 C 13,4 C 6,1 km/h (2 Bft)
15/10/2012 14:10 13,4 C 73 % 1012,1 hPa 0,0 mm 5,4 km/h (2 Bft) S-SO 202 0 min 0 W/m 8,7 C 13,4 C 7,9 km/h (2 Bft)
15/10/2012 14:20 13,2 C 73 % 1011,9 hPa 0,0 mm 3,6 km/h (1 Bft) SO 225 0 min 0 W/m 8,5 C 13,2 C 4,0 km/h (1 Bft)
15/10/2012 14:30 13,5 C 74 % 1012,1 hPa 0,0 mm 7,6 km/h (2 Bft) O 270 0 min 0 W/m 9,0 C 13,5 C 18,7 km/h (3 Bft)
15/10/2012 14:40 13,5 C 73 % 1012,0 hPa 0,0 mm 2,9 km/h (1 Bft) S-SE 157 0 min 0 W/m 8,8 C 13,5 C 7,2 km/h (2 Bft)
15/10/2012 14:50 13,8 C 72 % 1011,9 hPa 0,0 mm 8,3 km/h (2 Bft) S 180 0 min 0 W/m 8,8 C 13,8 C 10,4 km/h (2 Bft)
15/10/2012 15:00 13,8 C 69 % 1011,8 hPa 0,0 mm 0,0 km/h (0 Bft) O-SO 247 0 min 0 W/m 8,2 C 13,8 C 0,0 km/h (0 Bft)
15/10/2012 15:10 13,7 C 69 % 1011,6 hPa 0,0 mm 0,4 km/h (0 Bft) S-SO 202 0 min 0 W/m 8,1 C 13,7 C 4,3 km/h (1 Bft)
15/10/2012 15:20 13,8 C 68 % 1011,5 hPa 0,0 mm 1,4 km/h (1 Bft) S-SO 202 0 min 0 W/m 8,0 C 13,8 C 4,0 km/h (1 Bft)
15/10/2012 15:30 13,8 C 67 % 1011,5 hPa 0,0 mm 2,5 km/h (1 Bft) S-SO 202 0 min 0 W/m 7,8 C 13,8 C 4,0 km/h (1 Bft)
15/10/2012 15:40 14,2 C 68 % 1011,3 hPa 0,0 mm 2,9 km/h (1 Bft) O-NO 292 0 min 0 W/m 8,4 C 14,2 C 8,6 km/h (2 Bft)
15/10/2012 15:50 14,2 C 66 % 1011,2 hPa 0,0 mm 5,8 km/h (2 Bft) S 180 0 min 0 W/m 7,9 C 14,2 C 9,0 km/h (2 Bft)
15/10/2012 16:00 14,1 C 67 % 1011,3 hPa 0,0 mm 3,2 km/h (1 Bft) O-SO 247 0 min 0 W/m 8,1 C 14,1 C 8,6 km/h (2 Bft)
15/10/2012 16:10 13,9 C 66 % 1011,4 hPa 0,0 mm 2,2 km/h (1 Bft) SO 225 0 min 0 W/m 7,7 C 13,9 C 7,6 km/h (2 Bft)
15/10/2012 16:20 13,8 C 67 % 1011,5 hPa 0,0 mm 1,8 km/h (1 Bft) O-SO 247 0 min 0 W/m 7,8 C 13,8 C 3,6 km/h (1 Bft)
15/10/2012 16:30 13,8 C 67 % 1011,4 hPa 0,0 mm 3,2 km/h (1 Bft) SO 225 0 min 0 W/m 7,8 C 13,8 C 11,5 km/h (2 Bft)
15/10/2012 16:40 13,4 C 68 % 1011,3 hPa 0,0 mm 1,4 km/h (1 Bft) SO 225 0 min 0 W/m 7,6 C 13,4 C 3,6 km/h (1 Bft)
15/10/2012 16:50 13,2 C 69 % 1011,3 hPa 0,0 mm 2,2 km/h (1 Bft) O-SO 247 0 min 0 W/m 7,6 C 13,2 C 2,2 km/h (1 Bft)
15/10/2012 17:00 13,1 C 70 % 1011,1 hPa 0,0 mm 1,8 km/h (1 Bft) O-SO 247 0 min 0 W/m 7,8 C 13,1 C 4,3 km/h (1 Bft)
15/10/2012 17:10 13,2 C 70 % 1011,0 hPa 0,0 mm 4,0 km/h (1 Bft) S-SO 202 0 min 0 W/m 7,9 C 13,2 C 9,0 km/h (2 Bft)
15/10/2012 17:20 13,4 C 69 % 1011,0 hPa 0,0 mm 6,8 km/h (2 Bft) S-SO 202 0 min 0 W/m 7,8 C 13,4 C 7,6 km/h (2 Bft)
15/10/2012 17:30 13,4 C 69 % 1010,9 hPa 0,0 mm 3,2 km/h (1 Bft) S-SO 202 0 min 0 W/m 7,8 C 13,4 C 7,6 km/h (2 Bft)
15/10/2012 17:40 13,4 C 70 % 1010,8 hPa 0,0 mm 3,6 km/h (1 Bft) S 180 0 min 0 W/m 8,0 C 13,4 C 7,6 km/h (2 Bft)
15/10/2012 17:50 13,3 C 70 % 1010,8 hPa 0,0 mm 7,2 km/h (2 Bft) S-SO 202 0 min 0 W/m 7,9 C 13,3 C 15,5 km/h (3 Bft)
15/10/2012 18:00 12,9 C 70 % 1011,0 hPa 0,0 mm 7,2 km/h (2 Bft) S 180 0 min 0 W/m 7,6 C 12,9 C 11,2 km/h (2 Bft)
15/10/2012 18:10 12,5 C 71 % 1010,9 hPa 0,0 mm 4,0 km/h (1 Bft) SO 225 0 min 0 W/m 7,4 C 12,5 C 6,8 km/h (2 Bft)
15/10/2012 18:20 12,3 C 72 % 1011,0 hPa 0,0 mm 1,8 km/h (1 Bft) O-SO 247 0 min 0 W/m 7,4 C 12,3 C 3,2 km/h (1 Bft)
15/10/2012 18:30 12,0 C 73 % 1011,1 hPa 0,0 mm 2,9 km/h (1 Bft) SO 225 0 min 0 W/m 7,3 C 12,0 C 4,3 km/h (1 Bft)
15/10/2012 18:40 11,8 C 74 % 1011,1 hPa 0,0 mm 0,7 km/h (0 Bft) SO 225 0 min 0 W/m 7,3 C 11,8 C 3,6 km/h (1 Bft)
15/10/2012 18:50 11,5 C 75 % 1011,3 hPa 0,0 mm 0,4 km/h (0 Bft) S-SO 202 0 min 0 W/m 7,2 C 11,5 C 3,6 km/h (1 Bft)
15/10/2012 19:00 11,2 C 76 % 1011,4 hPa 0,0 mm 2,9 km/h (1 Bft) SO 225 0 min 0 W/m 7,1 C 11,2 C 4,0 km/h (1 Bft)
15/10/2012 19:10 11,0 C 78 % 1011,5 hPa 0,0 mm 0,0 km/h (0 Bft) SO 225 0 min 0 W/m 7,3 C 11,0 C 0,0 km/h (0 Bft)
15/10/2012 19:20 10,8 C 78 % 1011,4 hPa 0,0 mm 2,2 km/h (1 Bft) S 180 0 min 0 W/m 7,1 C 10,8 C 2,2 km/h (1 Bft)
15/10/2012 19:30 10,8 C 79 % 1011,5 hPa 0,0 mm 0,4 km/h (0 Bft) SO 225 0 min 0 W/m 7,3 C 10,8 C 2,9 km/h (1 Bft)
15/10/2012 19:40 10,7 C 79 % 1011,6 hPa 0,0 mm 4,3 km/h (1 Bft) S 180 0 min 0 W/m 7,2 C 10,7 C 6,5 km/h (2 Bft)
15/10/2012 19:50 10,6 C 80 % 1011,5 hPa 0,0 mm 2,2 km/h (1 Bft) S 180 0 min 0 W/m 7,3 C 10,6 C 4,3 km/h (1 Bft)
15/10/2012 20:00 10,6 C 80 % 1011,6 hPa 0,0 mm 4,7 km/h (1 Bft) S-SO 202 0 min 0 W/m 7,3 C 10,6 C 6,1 km/h (2 Bft)
15/10/2012 20:10 10,6 C 80 % 1011,6 hPa 0,0 mm 2,9 km/h (1 Bft) S-SO 202 0 min 0 W/m 7,3 C 10,6 C 3,2 km/h (1 Bft)
15/10/2012 20:20 10,3 C 80 % 1011,5 hPa 0,0 mm 2,2 km/h (1 Bft) S-SO 202 0 min 0 W/m 7,0 C 10,3 C 6,5 km/h (2 Bft)
15/10/2012 20:30 9,9 C 81 % 1011,5 hPa 0,0 mm 1,4 km/h (1 Bft) S-SO 202 0 min 0 W/m 6,8 C 9,9 C 2,9 km/h (1 Bft)
15/10/2012 20:40 9,6 C 82 % 1011,5 hPa 0,0 mm 2,2 km/h (1 Bft) S-SO 202 0 min 0 W/m 6,7 C 9,6 C 6,8 km/h (2 Bft)
15/10/2012 20:50 9,4 C 83 % 1011,5 hPa 0,0 mm 1,4 km/h (1 Bft) SO 225 0 min 0 W/m 6,7 C 9,4 C 1,4 km/h (1 Bft)
15/10/2012 21:00 9,4 C 84 % 1011,5 hPa 0,0 mm 0,0 km/h (0 Bft) S-SO 202 0 min 0 W/m 6,8 C 9,4 C 0,0 km/h (0 Bft)
15/10/2012 21:10 9,5 C 84 % 1011,5 hPa 0,0 mm 4,7 km/h (1 Bft) S-SE 157 0 min 0 W/m 6,9 C 9,3 C 7,6 km/h (2 Bft)
15/10/2012 21:20 9,6 C 83 % 1011,4 hPa 0,0 mm 2,9 km/h (1 Bft) S-SE 157 0 min 0 W/m 6,9 C 9,6 C 6,8 km/h (2 Bft)
15/10/2012 21:30 9,6 C 83 % 1011,4 hPa 0,0 mm 1,8 km/h (1 Bft) S-SO 202 0 min 0 W/m 6,9 C 9,6 C 1,8 km/h (1 Bft)
15/10/2012 21:40 9,6 C 83 % 1011,5 hPa 0,0 mm 5,0 km/h (1 Bft) S-SO 202 0 min 0 W/m 6,9 C 9,3 C 7,9 km/h (2 Bft)
15/10/2012 21:50 9,4 C 83 % 1011,5 hPa 0,0 mm 5,4 km/h (2 Bft) S-SO 202 0 min 0 W/m 6,7 C 9,0 C 8,6 km/h (2 Bft)
15/10/2012 22:00 9,4 C 83 % 1011,5 hPa 0,0 mm 4,0 km/h (1 Bft) S 180 0 min 0 W/m 6,7 C 9,4 C 8,3 km/h (2 Bft)
15/10/2012 22:10 9,2 C 83 % 1011,5 hPa 0,0 mm 1,1 km/h (1 Bft) S-SO 202 0 min 0 W/m 6,5 C 9,2 C 1,1 km/h (1 Bft)
15/10/2012 22:20 9,1 C 83 % 1011,5 hPa 0,0 mm 1,8 km/h (1 Bft) SE 135 0 min 0 W/m 6,4 C 9,1 C 7,2 km/h (2 Bft)
15/10/2012 22:30 8,9 C 84 % 1011,5 hPa 0,0 mm 2,9 km/h (1 Bft) SO 225 0 min 0 W/m 6,3 C 8,9 C 4,0 km/h (1 Bft)
15/10/2012 22:40 8,8 C 84 % 1011,5 hPa 0,0 mm 3,2 km/h (1 Bft) S-SO 202 0 min 0 W/m 6,2 C 8,8 C 3,6 km/h (1 Bft)
15/10/2012 22:50 8,6 C 84 % 1011,6 hPa 0,0 mm 0,7 km/h (0 Bft) S-SO 202 0 min 0 W/m 6,1 C 8,6 C 0,7 km/h (0 Bft)
15/10/2012 23:00 8,5 C 84 % 1011,7 hPa 0,0 mm 1,4 km/h (1 Bft) S 180 0 min 0 W/m 6,0 C 8,5 C 5,4 km/h (2 Bft)
15/10/2012 23:10 8,4 C 84 % 1011,5 hPa 0,0 mm 4,3 km/h (1 Bft) S 180 0 min 0 W/m 5,9 C 8,4 C 9,0 km/h (2 Bft)
15/10/2012 23:20 8,4 C 84 % 1011,4 hPa 0,0 mm 5,4 km/h (2 Bft) S 180 0 min 0 W/m 5,9 C 7,8 C 10,1 km/h (2 Bft)
15/10/2012 23:30 8,4 C 84 % 1011,3 hPa 0,0 mm 4,3 km/h (1 Bft) S-SE 157 0 min 0 W/m 5,9 C 8,4 C 6,8 km/h (2 Bft)
15/10/2012 23:40 8,5 C 84 % 1011,3 hPa 0,0 mm 0,4 km/h (0 Bft) S-SE 157 0 min 0 W/m 6,0 C 8,5 C 3,2 km/h (1 Bft)
15/10/2012 23:50 8,6 C 84 % 1011,1 hPa 0,0 mm 4,7 km/h (1 Bft) S 180 0 min 0 W/m 6,1 C 8,3 C 8,6 km/h (2 Bft)
_ Min-Heure 07:50 16:10 00:10 - 21:00 - - - - 07:50 07:50 21:00
Minimum _ 2,1 C 66 % 1005,8 hPa - 0,0 km/h (0 Bft) - - - - 1,2 C 2,1 C 0,0 km/h (0 Bft)
_ Max-Heure 15:50 10:50 13:50 08:20 14:50 - - 23:50 23:50 12:40 15:50 14:30
Maximum _ 14,2 C 95 % 1012,3 hPa 0,1 mm 8,3 km/h
S (2 Bft)
- - 0 min 0 W/m 10,0 C 14,2 C 18,7 km/h
O (3 Bft)
Moyenne _ 8,1 C 85 % 1010,1 hPa #0,1 mm 1,7 km/h (1 Bft) S-SE - #0 min. 0 W/m 5,6 C 8,1 C 3,2 km/h (1 Bft)
Saint Bonnet de Bellac- Haute Vienne - France